Weather History for KFEP - February, 2013

Change the Weather History Date:

Thursday, February 21, 2013

  Actual Average (KRFD) Record (KRFD)
Temperature  
Mean Temperature 18 °F 28 °F  
Max Temperature 27 °F 36 °F 64 °F (1930)
Min Temperature 8 °F 20 °F -10 °F (1963)
Degree Days  
Heating Degree Days 48 37  
Month to date heating degree days 844  
Since 1 July heating degree days 4753  
Cooling Degree Days 0 0  
Month to date cooling degree days 0  
Year to date cooling degree days 0  
Moisture  
Dew Point 16 °F    
Average Humidity 86    
Maximum Humidity 91    
Minimum Humidity 79    
Precipitation  
Precipitation 0.00 in 0.05 in 1.25 in (1913)
Month to date precipitation 0.98  
Year to date precipitation 2.35  
Snow  
Snow 0.00 in 0.30 in 6.00 in (1913)
Month to date snowfall 6.1  
Since 1 July snowfall 29.4  
Snow Depth -    
Sea Level Pressure  
Sea Level Pressure 30.24 in    
Wind  
Wind Speed 7 mph (NE)    
Max Wind Speed 30 mph    
Max Gust Speed 37 mph    
Visibility 9 miles    
Events Snow    
T = Trace of Precipitation, MM = Missing Value Source: NWS Daily Summary

Daily Weather History Graph

Daily Weather History Graph

Search for Another Location

Airport or City:

Trip Planner

Search our weather history database for the weather conditions in past years. The results will help you decide how hot, cold, wet, or windy it might be!

Date:

Astronomy

Feb. 21, 2013 Rise Set
Actual Time 6:45 AM CST 5:38 PM CST
Civil Twilight 6:17 AM CST 6:07 PM CST
Nautical Twilight 5:44 AM CST 6:39 PM CST
Astronomical Twilight 5:12 AM CST 7:12 PM CST
Moon 1:50 PM CST (2/21) 3:53 AM CST (2/21)
Length of Visible Light 11h 50m
Length of Day
10h 53m
Waxing Gibbous, 84% of the Moon is Illuminated
Feb 21
Waxing Gibbous
Feb 25
Full
Mar 4
Last Quarter
Mar 11
New
Mar 19
First Quarter

Hourly Weather History & Observations

Time (CST) Temp. Windchill Dew Point Humidity Pressure Visibility Wind Dir Wind Speed Gust Speed Precip Events Conditions
12:15 AM 10.8 °F - 7.3 °F 86% 30.36 in 10.0 mi Calm Calm - N/A   Clear
12:35 AM 9.3 °F - 5.9 °F 86% 30.37 in 10.0 mi Calm Calm - N/A   Clear
12:55 AM 11.1 °F - 7.5 °F 85% 30.37 in 10.0 mi Calm Calm - N/A   Clear
1:15 AM 10.2 °F - 6.6 °F 85% 30.36 in 10.0 mi Calm Calm - N/A   Clear
1:35 AM 11.1 °F - 7.3 °F 85% 30.36 in 10.0 mi Calm Calm - N/A   Clear
1:55 AM 11.1 °F - 7.5 °F 85% 30.36 in 10.0 mi Calm Calm - N/A   Clear
2:15 AM 9.5 °F - 5.9 °F 85% 30.36 in 10.0 mi Calm Calm - N/A   Clear
2:35 AM 11.1 °F - 7.5 °F 85% 30.35 in 10.0 mi Calm Calm - N/A   Clear
2:55 AM 10.4 °F - 6.8 °F 85% 30.35 in 10.0 mi Calm Calm - N/A   Clear
3:15 AM 8.6 °F - 5.2 °F 86% 30.36 in 10.0 mi Calm Calm - N/A   Clear
3:35 AM 10.4 °F - 6.8 °F 85% 30.38 in 10.0 mi Calm Calm - N/A   Clear
3:55 AM 11.1 °F - 7.3 °F 85% 30.38 in 10.0 mi Calm Calm - N/A   Clear
4:15 AM 9.5 °F - 6.1 °F 86% 30.38 in 10.0 mi Calm Calm - N/A   Clear
4:35 AM 9.7 °F - 6.1 °F 85% 30.38 in 10.0 mi Calm Calm - N/A   Clear
4:55 AM 10.6 °F 2.5 °F 7.2 °F 86% 30.36 in 10.0 mi North 4.6 mph - N/A   Clear
5:15 AM 11.1 °F 0.4 °F 7.3 °F 85% 30.33 in 10.0 mi NNE 6.9 mph - N/A   Clear
5:35 AM 11.1 °F 1.7 °F 7.0 °F 83% 30.34 in 10.0 mi NE 5.8 mph - N/A   Clear
5:55 AM 14.0 °F 5.1 °F 8.6 °F 79% 30.35 in 10.0 mi NE 5.8 mph - N/A   Clear
6:15 AM 13.6 °F 6.0 °F 9.3 °F 83% 30.35 in 10.0 mi NNE 4.6 mph - N/A   Clear
6:35 AM 13.6 °F - 9.3 °F 83% 30.37 in 10.0 mi Calm Calm - N/A   Clear
6:55 AM 11.1 °F 1.7 °F 6.8 °F 83% 30.36 in 10.0 mi NNE 5.8 mph - N/A   Clear
7:15 AM 13.6 °F - 9.3 °F 83% 30.37 in 10.0 mi Calm Calm - N/A   Mostly Cloudy
7:35 AM 13.6 °F - 9.5 °F 84% 30.38 in 10.0 mi Calm Calm - N/A   Overcast
7:55 AM 15.3 °F 6.6 °F 11.1 °F 84% 30.36 in 10.0 mi North 5.8 mph - N/A   Overcast
8:15 AM 18.0 °F 6.1 °F 13.8 °F 84% 30.35 in 10.0 mi NNE 10.4 mph - N/A   Overcast
8:35 AM 18.5 °F 7.5 °F 14.5 °F 85% 30.35 in 10.0 mi NNE 9.2 mph - N/A   Overcast
8:55 AM 18.5 °F 6.8 °F 14.7 °F 85% 30.36 in 10.0 mi NNE 10.4 mph - N/A   Overcast
9:15 AM 18.5 °F 6.8 °F 14.9 °F 86% 30.35 in 10.0 mi NNE 10.4 mph - N/A   Overcast
9:35 AM 18.9 °F 7.2 °F 14.9 °F 85% 30.36 in 10.0 mi NNE 10.4 mph - N/A   Overcast
9:55 AM 19.8 °F 8.3 °F 15.8 °F 85% 30.36 in 10.0 mi NE 10.4 mph - N/A   Overcast
10:15 AM 21.2 °F 11.7 °F 17.1 °F 84% 30.36 in 10.0 mi NNE 8.1 mph - N/A   Overcast
10:35 AM 21.2 °F 10.1 °F 17.1 °F 84% 30.36 in 10.0 mi NE 10.4 mph - N/A   Overcast
10:55 AM 21.2 °F 9.5 °F 17.2 °F 85% 30.33 in 10.0 mi NNE 11.5 mph - N/A   Overcast
11:15 AM 21.2 °F 10.9 °F 17.2 °F 85% 30.33 in 10.0 mi NNE 9.2 mph - N/A   Overcast
11:35 AM 21.9 °F 11.0 °F 18.0 °F 85% 30.34 in 10.0 mi NNE 10.4 mph - N/A   Overcast
11:55 AM 22.3 °F 10.8 °F 18.3 °F 85% 30.31 in 10.0 mi NNE 11.5 mph - N/A   Overcast
12:15 PM 22.1 °F 10.0 °F 18.5 °F 86% 30.29 in 10.0 mi NNE 12.7 mph - N/A   Overcast
12:35 PM 23.7 °F 11.5 °F 20.1 °F 86% 30.28 in 10.0 mi NNE 13.8 mph - N/A   Overcast
12:55 PM 23.7 °F 13.3 °F 20.1 °F 86% 30.26 in 10.0 mi NNE 10.4 mph - N/A   Overcast
1:15 PM 24.8 °F 14.0 °F 21.2 °F 86% 30.24 in 10.0 mi NNE 11.5 mph - N/A   Overcast
1:35 PM 24.8 °F 13.4 °F 21.2 °F 86% 30.22 in 10.0 mi NNE 12.7 mph - N/A   Overcast
1:55 PM 24.8 °F 13.4 °F 21.2 °F 86% 30.22 in 10.0 mi NNE 12.7 mph - N/A   Overcast
2:15 PM 24.6 °F 13.8 °F 20.8 °F 86% 30.22 in 10.0 mi NNE 11.5 mph - N/A   Overcast
2:35 PM 24.3 °F 13.3 °F 20.3 °F 85% 30.23 in 10.0 mi NNE 11.5 mph - N/A   Overcast
2:55 PM 24.6 °F 13.8 °F 21.0 °F 86% 30.23 in 10.0 mi NNE 11.5 mph - N/A   Overcast
3:15 PM 24.8 °F 12.9 °F 21.6 °F 87% 30.21 in 10.0 mi NE 13.8 mph - N/A   Overcast
3:35 PM 24.8 °F 12.4 °F 21.6 °F 87% 30.20 in 10.0 mi NNE 15.0 mph - N/A   Overcast
3:55 PM 24.8 °F 12.4 °F 21.7 °F 88% 30.20 in 10.0 mi NE 15.0 mph - N/A   Overcast
4:15 PM 24.8 °F 14.0 °F 21.9 °F 89% 30.20 in 10.0 mi NE 11.5 mph - N/A   Overcast
4:35 PM 24.8 °F 13.4 °F 22.1 °F 89% 30.18 in 7.0 mi NE 12.7 mph 17.3 mph N/A   Overcast
4:55 PM 24.8 °F 11.5 °F 22.1 °F 89% 30.15 in 5.0 mi NE 17.3 mph 20.7 mph N/A   Overcast
5:15 PM 24.8 °F 10.7 °F 22.1 °F 89% 30.13 in 5.0 mi NE 19.6 mph - N/A   Overcast
5:35 PM 24.8 °F 12.4 °F 22.1 °F 89% 30.13 in 5.0 mi NE 15.0 mph - N/A   Overcast
5:55 PM 25.0 °F 12.6 °F 22.3 °F 89% 30.12 in 7.0 mi NE 15.0 mph 19.6 mph N/A   Overcast
6:15 PM 26.6 °F 11.7 °F 23.9 °F 90% 30.11 in 10.0 mi NE 24.2 mph - N/A   Overcast
6:35 PM 27.0 °F 12.5 °F 23.9 °F 88% 30.11 in 10.0 mi NE 23.0 mph 28.8 mph N/A   Overcast
6:55 PM 27.0 °F 12.2 °F 23.9 °F 88% 30.10 in 10.0 mi ENE 24.2 mph 28.8 mph N/A   Overcast
7:15 PM 27.0 °F 10.8 °F 23.7 °F 88% 30.06 in 10.0 mi ENE 29.9 mph 36.8 mph N/A   Overcast
7:35 PM 27.0 °F 12.5 °F 23.5 °F 87% 30.07 in 10.0 mi ENE 23.0 mph 31.1 mph N/A   Overcast
7:55 PM 27.1 °F 13.8 °F 23.7 °F 87% 30.06 in 10.0 mi ENE 19.6 mph 25.3 mph N/A   Overcast
8:15 PM 27.3 °F 14.4 °F 23.7 °F 86% 30.07 in 10.0 mi ENE 18.4 mph 23.0 mph N/A   Overcast
8:35 PM 27.3 °F 14.0 °F 23.7 °F 86% 30.03 in 10.0 mi ENE 19.6 mph 26.5 mph N/A   Overcast
8:55 PM 27.5 °F 15.0 °F 23.7 °F 86% 30.03 in 10.0 mi ENE 17.3 mph - N/A   Overcast
9:15 PM 27.5 °F 15.4 °F 23.7 °F 86% 30.03 in 10.0 mi ENE 16.1 mph - N/A   Overcast
9:35 PM 27.5 °F 15.0 °F 23.4 °F 84% 30.03 in 10.0 mi East 17.3 mph 24.2 mph N/A   Overcast
9:55 PM 27.5 °F 14.6 °F 23.2 °F 84% 30.03 in 10.0 mi ENE 18.4 mph 26.5 mph N/A   Overcast
10:15 PM 27.5 °F 14.2 °F 23.0 °F 83% 30.02 in 5.0 mi ENE 19.6 mph 27.6 mph N/A Snow Light Snow
10:35 PM 26.8 °F 13.3 °F 23.5 °F 88% 29.99 in 0.8 mi NE 19.6 mph 26.5 mph N/A Snow Snow
10:55 PM 26.2 °F 13.0 °F 23.7 °F 90% 29.98 in 0.5 mi ENE 18.4 mph - N/A Snow Heavy Snow
11:15 PM 26.2 °F 12.6 °F 23.9 °F 91% 29.96 in 0.8 mi NE 19.6 mph 25.3 mph N/A Snow Snow
11:35 PM 26.2 °F 12.6 °F 23.9 °F 91% 29.94 in 0.5 mi NE 19.6 mph - N/A Snow Heavy Snow
11:55 PM 26.4 °F 13.6 °F 23.9 °F 90% 29.94 in 1.0 mi NE 17.3 mph - N/A Snow Light Snow